QPF
0.01 0.00 0.00 0.00 0.00 0.00 0.00 0.00 0.00 0.00 0.00 0.00 0.00 0.00 0.00 0.00 0.00 0.00 0.00 0.00 0.00 0.00 0.00 0.00 0.00 0.00 0.00 0.00 0.00 0.01 0.00 0.00 0.01 0.01 0.01 0.01 0.01 0.01 0.02 0.02 0.01 0.01 0.01 0.02
0.01 0.00 0.00 0.00 0.00 0.00 0.00 0.00 0.00 0.00 0.00 0.00 0.00 0.00 0.00 0.00 0.00 0.00 0.00 0.00 0.00 0.00 0.00 0.00 0.00 0.00 0.00 0.01 0.01 0.01 0.00 0.00 0.00 0.01 0.01 0.01 0.01 0.02 0.03 0.02 0.01 0.01 0.01 0.01
0.00 0.00 0.00 0.00 0.00 0.00 0.00 0.00 0.00 0.00 0.00 0.00 0.00 0.00 0.00 0.00 0.00 0.00 0.00 0.00 0.00 0.00 0.00 0.00 0.00 0.00 0.00 0.01 0.01 0.00 0.01 0.00 0.01 0.01 0.01 0.01 0.02 0.03 0.04 0.02 0.02 0.01 0.01 0.01
0.01 0.00 0.00 0.00 0.00 0.00 0.00 0.00 0.00 0.00 0.00 0.00 0.00 0.00 0.00 0.00 0.00 0.00 0.00 0.00 0.00 0.00 0.00 0.00 0.00 0.00 0.00 0.00 0.00 0.00 0.01 0.01 0.02 0.02 0.02 0.02 0.03 0.04 0.04 0.03 0.02 0.01 0.01 0.01
0.00 0.01 0.01 0.00 0.00 0.00 0.00 0.00 0.00 0.00 0.00 0.00 0.00 0.00 0.00 0.00 0.00 0.00 0.00 0.00 0.00 0.00 0.00 0.00 0.00 0.00 0.00 0.00 0.00 0.00 0.00 0.01 0.01 0.02 0.02 0.01 0.01 0.03 0.02 0.02 0.02 0.02 0.01 0.01
0.00 0.00 0.00 0.00 0.00 0.00 0.00 0.00 0.00 0.00 0.00 0.00 0.00 0.00 0.00 0.00 0.00 0.00 0.00 0.00 0.00 0.00 0.00 0.00 0.00 0.00 0.00 0.00 0.00 0.00 0.00 0.01 0.01 0.01 0.01 0.02 0.01 0.02 0.02 0.01 0.01 0.01 0.01 0.01
0.00 0.00 0.00 0.00 0.00 0.00 0.00 0.00 0.00 0.00 0.00 0.00 0.00 0.00 0.00 0.00 0.00 0.00 0.00 0.00 0.00 0.00 0.00 0.00 0.00 0.00 0.00 0.00 0.00 0.00 0.00 0.00 0.00 0.01 0.02 0.02 0.02 0.02 0.02 0.02 0.02 0.02 0.01 0.01
0.00 0.00 0.00 0.00 0.00 0.00 0.00 0.00 0.00 0.00 0.00 0.00 0.00 0.00 0.00 0.00 0.00 0.00 0.00 0.00 0.00 0.00 0.00 0.00 0.00 0.00 0.00 0.00 0.00 0.00 0.00 0.00 0.00 0.01 0.01 0.01 0.02 0.03 0.03 0.03 0.03 0.02 0.02 0.02
0.00 0.00 0.00 0.00 0.00 0.00 0.00 0.00 0.00 0.00 0.00 0.00 0.00 0.00 0.00 0.00 0.00 0.00 0.00 0.00 0.00 0.00 0.00 0.00 0.00 0.00 0.00 0.00 0.00 0.00 0.00 0.00 0.00 0.00 0.00 0.02 0.04 0.05 0.04 0.04 0.03 0.02 0.03 0.04
0.00 0.00 0.00 0.00 0.00 0.00 0.00 0.00 0.00 0.00 0.00 0.00 0.00 0.00 0.00 0.00 0.00 0.00 0.00 0.00 0.00 0.00 0.00 0.00 0.00 0.00 0.00 0.00 0.00 0.00 0.00 0.00 0.00 0.00 0.01 0.03 0.04 0.04 0.05 0.05 0.03 0.04 0.05 0.05
0.00 0.00 0.00 0.00 0.00 0.00 0.00 0.00 0.00 0.00 0.00 0.00 0.00 0.00 0.00 0.00 0.00 0.00 0.00 0.00 0.00 0.00 0.00 0.00 0.00 0.00 0.00 0.00 0.00 0.00 0.00 0.00 0.00 0.00 0.00 0.01 0.01 0.02 0.03 0.03 0.03 0.05 0.06 0.05
0.00 0.00 0.00 0.00 0.00 0.00 0.00 0.00 0.00 0.00 0.00 0.00 0.00 0.00 0.00 0.00 0.00 0.00 0.00 0.00 0.00 0.00 0.00 0.00 0.00 0.00 0.00 0.00 0.00 0.00 0.00 0.00 0.00 0.00 0.00 0.00 0.00 0.00 0.00 0.01 0.01 0.02 0.02 0.02
0.00 0.00 0.00 0.00 0.00 0.00 0.00 0.00 0.00 0.00 0.00 0.00 0.00 0.00 0.00 0.00 0.00 0.00 0.00 0.00 0.00 0.00 0.00 0.00 0.00 0.00 0.00 0.00 0.00 0.00 0.00 0.00 0.00 0.00 0.00 0.00 0.00 0.00 0.00 0.00 0.00 0.01 0.01 0.02
0.00 0.00 0.00 0.00 0.00 0.00 0.00 0.00 0.00 0.00 0.00 0.00 0.00 0.00 0.00 0.00 0.00 0.00 0.00 0.00 0.00 0.00 0.00 0.00 0.00 0.00 0.00 0.00 0.00 0.00 0.00 0.00 0.00 0.00 0.00 0.00 0.00 0.00 0.00 0.00 0.00 0.00 0.00 0.01
0.00 0.00 0.00 0.00 0.00 0.00 0.00 0.00 0.00 0.00 0.00 0.00 0.00 0.00 0.00 0.00 0.00 0.00 0.00 0.00 0.00 0.00 0.00 0.00 0.00 0.00 0.00 0.00 0.00 0.00 0.00 0.00 0.00 0.00 0.00 0.00 0.00 0.00 0.00 0.00 0.00 0.00 0.00 0.01
0.00 0.00 0.00 0.00 0.00 0.00 0.00 0.00 0.00 0.00 0.00 0.00 0.00 0.00 0.00 0.00 0.00 0.00 0.00 0.00 0.00 0.00 0.00 0.00 0.00 0.00 0.00 0.00 0.00 0.00 0.00 0.00 0.00 0.00 0.00 0.00 0.00 0.00 0.00 0.00 0.00 0.00 0.00 0.01
0.00 0.00 0.00 0.00 0.00 0.00 0.00 0.00 0.00 0.00 0.00 0.00 0.00 0.00 0.00 0.00 0.00 0.00 0.00 0.00 0.00 0.00 0.00 0.00 0.00 0.00 0.00 0.00 0.00 0.00 0.00 0.00 0.00 0.00 0.00 0.00 0.00 0.00 0.00 0.00 0.00 0.00 0.00 0.00
0.00 0.00 0.00 0.00 0.00 0.00 0.00 0.00 0.00 0.00 0.00 0.00 0.00 0.00 0.00 0.00 0.00 0.00 0.00 0.00 0.00 0.00 0.00 0.00 0.00 0.00 0.00 0.00 0.00 0.00 0.00 0.00 0.00 0.00 0.00 0.00 0.00 0.00 0.00 0.00 0.00 0.00 0.00 0.00
0.00 0.00 0.00 0.00 0.00 0.00 0.00 0.00 0.00 0.00 0.00 0.00 0.00 0.00 0.00 0.00 0.00 0.00 0.00 0.00 0.00 0.00 0.00 0.00 0.00 0.00 0.00 0.00 0.00 0.00 0.00 0.00 0.00 0.00 0.00 0.00 0.00 0.00 0.00 0.00 0.00 0.00 0.00 0.00
0.00 0.00 0.00 0.00 0.00 0.00 0.00 0.00 0.00 0.00 0.00 0.00 0.00 0.00 0.00 0.00 0.00 0.00 0.00 0.00 0.00 0.00 0.00 0.00 0.00 0.00 0.00 0.00 0.00 0.00 0.00 0.00 0.00 0.00 0.00 0.00 0.00 0.00 0.00 0.00 0.00 0.00 0.00 0.00
0.00 0.00 0.00 0.00 0.00 0.00 0.00 0.00 0.00 0.00 0.00 0.00 0.00 0.00 0.00 0.00 0.00 0.00 0.00 0.00 0.00 0.00 0.00 0.00 0.00 0.00 0.00 0.00 0.00 0.00 0.00 0.00 0.00 0.00 0.00 0.00 0.00 0.00 0.00 0.00 0.00 0.00 0.00 0.00
0.00 0.00 0.00 0.00 0.00 0.00 0.00 0.00 0.00 0.00 0.00 0.00 0.00 0.00 0.00 0.00 0.00 0.00 0.00 0.00 0.00 0.00 0.00 0.00 0.00 0.00 0.00 0.00 0.00 0.00 0.00 0.00 0.00 0.00 0.00 0.00 0.00 0.00 0.00 0.00 0.00 0.00 0.00 0.00
0.00 0.00 0.00 0.00 0.00 0.00 0.00 0.00 0.00 0.00 0.00 0.00 0.00 0.00 0.00 0.00 0.00 0.00 0.00 0.00 0.00 0.00 0.00 0.00 0.00 0.00 0.00 0.00 0.00 0.00 0.00 0.00 0.00 0.00 0.00 0.00 0.00 0.00 0.00 0.00 0.00 0.00 0.00 0.00
0.00 0.00 0.00 0.00 0.00 0.00 0.00 0.00 0.00 0.00 0.00 0.00 0.00 0.00 0.00 0.00 0.00 0.00 0.00 0.00 0.00 0.00 0.00 0.00 0.00 0.00 0.00 0.00 0.00 0.00 0.00 0.00 0.00 0.00 0.00 0.00 0.00 0.00 0.00 0.00 0.00 0.00 0.00 0.00
0.00 0.00 0.00 0.00 0.00 0.00 0.00 0.00 0.00 0.00 0.00 0.00 0.00 0.00 0.00 0.00 0.00 0.00 0.00 0.00 0.00 0.00 0.00 0.00 0.00 0.00 0.00 0.00 0.00 0.00 0.00 0.00 0.00 0.00 0.00 0.00 0.00 0.00 0.00 0.00 0.00 0.00 0.00 0.00
0.00 0.00 0.00 0.00 0.00 0.00 0.00 0.00 0.00 0.00 0.00 0.00 0.00 0.00 0.00 0.00 0.00 0.00 0.00 0.00 0.00 0.00 0.00 0.00 0.00 0.00 0.00 0.00 0.00 0.00 0.00 0.00 0.00 0.00 0.00 0.00 0.00 0.00 0.00 0.00 0.00 0.00 0.00 0.00
MSLP
1013.77 1014.71 1015.55 1016.28 1016.88 1017.39 1017.84 1018.24 1018.61 1018.96 1019.27 1019.51 1019.68 1019.75 1019.74 1019.66 1019.53 1019.39 1019.27 1019.17 1019.10 1019.06 1019.01 1018.95 1018.84 1018.69 1018.50 1018.27 1018.01 1017.75 1017.48 1017.20 1016.91 1016.58 1016.21 1015.79 1015.34 1014.86 1014.38 1013.93 1013.53 1013.20 1012.94 1012.75
1014.59 1015.47 1016.23 1016.87 1017.38 1017.82 1018.19 1018.54 1018.87 1019.18 1019.44 1019.63 1019.73 1019.74 1019.66 1019.52 1019.34 1019.18 1019.03 1018.94 1018.88 1018.86 1018.83 1018.79 1018.71 1018.58 1018.41 1018.20 1017.98 1017.76 1017.54 1017.31 1017.07 1016.79 1016.47 1016.09 1015.66 1015.20 1014.73 1014.28 1013.87 1013.53 1013.25 1013.02
1015.37 1016.19 1016.88 1017.44 1017.89 1018.26 1018.59 1018.90 1019.19 1019.44 1019.64 1019.76 1019.79 1019.72 1019.56 1019.36 1019.14 1018.94 1018.79 1018.71 1018.67 1018.67 1018.67 1018.65 1018.59 1018.47 1018.31 1018.12 1017.93 1017.73 1017.55 1017.37 1017.18 1016.95 1016.68 1016.34 1015.95 1015.52 1015.07 1014.62 1014.23 1013.88 1013.59 1013.34
1016.05 1016.80 1017.42 1017.92 1018.33 1018.67 1018.97 1019.26 1019.51 1019.72 1019.86 1019.91 1019.85 1019.69 1019.46 1019.19 1018.93 1018.71 1018.57 1018.50 1018.50 1018.53 1018.56 1018.56 1018.51 1018.39 1018.24 1018.05 1017.86 1017.69 1017.53 1017.39 1017.24 1017.07 1016.83 1016.54 1016.18 1015.77 1015.34 1014.92 1014.53 1014.19 1013.89 1013.63
1016.56 1017.24 1017.80 1018.26 1018.64 1018.98 1019.28 1019.57 1019.81 1019.99 1020.07 1020.05 1019.90 1019.66 1019.35 1019.02 1018.72 1018.49 1018.36 1018.32 1018.35 1018.42 1018.48 1018.51 1018.47 1018.36 1018.20 1018.01 1017.82 1017.65 1017.51 1017.39 1017.27 1017.12 1016.93 1016.67 1016.34 1015.95 1015.54 1015.13 1014.75 1014.41 1014.12 1013.86
1016.90 1017.50 1018.01 1018.44 1018.82 1019.17 1019.50 1019.81 1020.06 1020.22 1020.27 1020.18 1019.96 1019.63 1019.25 1018.86 1018.52 1018.28 1018.16 1018.14 1018.21 1018.32 1018.42 1018.47 1018.45 1018.35 1018.19 1017.99 1017.79 1017.62 1017.48 1017.37 1017.26 1017.14 1016.97 1016.73 1016.42 1016.05 1015.65 1015.24 1014.86 1014.53 1014.24 1013.97
1017.10 1017.62 1018.07 1018.48 1018.87 1019.26 1019.64 1019.98 1020.25 1020.41 1020.43 1020.29 1020.00 1019.60 1019.15 1018.70 1018.32 1018.07 1017.95 1017.95 1018.05 1018.20 1018.34 1018.41 1018.41 1018.33 1018.17 1017.97 1017.77 1017.59 1017.44 1017.33 1017.24 1017.12 1016.96 1016.73 1016.43 1016.07 1015.67 1015.27 1014.89 1014.54 1014.25 1013.98
1017.20 1017.64 1018.04 1018.44 1018.86 1019.29 1019.72 1020.10 1020.41 1020.57 1020.57 1020.39 1020.04 1019.56 1019.04 1018.53 1018.11 1017.83 1017.70 1017.72 1017.84 1018.01 1018.18 1018.29 1018.31 1018.24 1018.10 1017.91 1017.71 1017.53 1017.38 1017.27 1017.18 1017.07 1016.92 1016.70 1016.41 1016.05 1015.65 1015.24 1014.84 1014.49 1014.18 1013.91
1017.25 1017.61 1017.98 1018.38 1018.82 1019.29 1019.77 1020.20 1020.53 1020.70 1020.68 1020.45 1020.04 1019.51 1018.92 1018.35 1017.88 1017.56 1017.41 1017.42 1017.55 1017.73 1017.92 1018.06 1018.11 1018.06 1017.94 1017.77 1017.58 1017.41 1017.28 1017.18 1017.09 1016.99 1016.85 1016.64 1016.36 1016.01 1015.60 1015.18 1014.78 1014.41 1014.08 1013.78
1017.25 1017.57 1017.92 1018.33 1018.79 1019.30 1019.82 1020.28 1020.62 1020.78 1020.73 1020.47 1020.01 1019.42 1018.77 1018.15 1017.63 1017.27 1017.08 1017.06 1017.18 1017.36 1017.56 1017.71 1017.78 1017.76 1017.67 1017.52 1017.37 1017.22 1017.11 1017.02 1016.96 1016.88 1016.76 1016.57 1016.31 1015.97 1015.57 1015.15 1014.73 1014.34 1013.98 1013.67
1017.24 1017.54 1017.89 1018.30 1018.79 1019.32 1019.85 1020.32 1020.65 1020.79 1020.72 1020.41 1019.91 1019.27 1018.58 1017.91 1017.35 1016.94 1016.72 1016.67 1016.75 1016.91 1017.10 1017.25 1017.33 1017.34 1017.28 1017.17 1017.05 1016.94 1016.86 1016.81 1016.78 1016.73 1016.64 1016.49 1016.26 1015.95 1015.57 1015.16 1014.74 1014.33 1013.95 1013.60
1017.20 1017.50 1017.86 1018.29 1018.79 1019.32 1019.85 1020.29 1020.59 1020.70 1020.59 1020.25 1019.71 1019.05 1018.33 1017.64 1017.05 1016.61 1016.35 1016.26 1016.30 1016.43 1016.59 1016.73 1016.81 1016.83 1016.80 1016.73 1016.65 1016.59 1016.55 1016.55 1016.55 1016.55 1016.51 1016.40 1016.21 1015.94 1015.60 1015.21 1014.79 1014.38 1013.98 1013.60
1017.12 1017.45 1017.83 1018.27 1018.76 1019.28 1019.76 1020.15 1020.40 1020.46 1020.30 1019.93 1019.38 1018.72 1018.00 1017.31 1016.72 1016.28 1015.99 1015.87 1015.87 1015.95 1016.07 1016.18 1016.26 1016.29 1016.28 1016.24 1016.20 1016.19 1016.20 1016.24 1016.30 1016.34 1016.35 1016.30 1016.16 1015.94 1015.65 1015.29 1014.89 1014.48 1014.07 1013.67
1017.03 1017.38 1017.77 1018.21 1018.68 1019.14 1019.56 1019.88 1020.05 1020.04 1019.83 1019.44 1018.90 1018.26 1017.58 1016.93 1016.37 1015.94 1015.66 1015.51 1015.47 1015.51 1015.59 1015.67 1015.72 1015.74 1015.74 1015.74 1015.74 1015.77 1015.83 1015.92 1016.03 1016.12 1016.18 1016.18 1016.09 1015.93 1015.68 1015.36 1015.00 1014.60 1014.20 1013.79
1016.93 1017.30 1017.69 1018.10 1018.52 1018.91 1019.23 1019.45 1019.52 1019.44 1019.19 1018.79 1018.27 1017.67 1017.06 1016.48 1015.98 1015.60 1015.33 1015.18 1015.12 1015.12 1015.16 1015.19 1015.22 1015.23 1015.24 1015.25 1015.29 1015.36 1015.47 1015.60 1015.75 1015.89 1015.99 1016.03 1015.99 1015.87 1015.66 1015.39 1015.06 1014.69 1014.31 1013.91
1016.85 1017.22 1017.59 1017.95 1018.29 1018.57 1018.78 1018.88 1018.85 1018.69 1018.40 1017.99 1017.51 1016.98 1016.46 1015.97 1015.56 1015.24 1015.02 1014.88 1014.80 1014.78 1014.77 1014.77 1014.77 1014.77 1014.78 1014.81 1014.87 1014.98 1015.12 1015.29 1015.47 1015.64 1015.78 1015.85 1015.84 1015.75 1015.59 1015.35 1015.05 1014.72 1014.36 1013.98
1016.83 1017.16 1017.48 1017.77 1018.00 1018.16 1018.24 1018.22 1018.09 1017.85 1017.52 1017.12 1016.68 1016.23 1015.80 1015.42 1015.11 1014.86 1014.69 1014.57 1014.50 1014.45 1014.42 1014.39 1014.36 1014.35 1014.36 1014.40 1014.49 1014.63 1014.80 1015.00 1015.21 1015.40 1015.54 1015.63 1015.64 1015.57 1015.43 1015.21 1014.95 1014.64 1014.31 1013.97
1016.83 1017.11 1017.35 1017.55 1017.67 1017.71 1017.67 1017.53 1017.30 1017.00 1016.64 1016.26 1015.86 1015.49 1015.15 1014.87 1014.65 1014.48 1014.35 1014.26 1014.19 1014.13 1014.07 1014.02 1013.98 1013.96 1013.97 1014.03 1014.15 1014.31 1014.51 1014.73 1014.95 1015.15 1015.30 1015.39 1015.40 1015.33 1015.19 1014.99 1014.74 1014.46 1014.16 1013.86
1016.83 1017.04 1017.19 1017.29 1017.30 1017.24 1017.09 1016.86 1016.56 1016.22 1015.86 1015.49 1015.14 1014.83 1014.58 1014.37 1014.22 1014.11 1014.02 1013.95 1013.88 1013.81 1013.73 1013.66 1013.61 1013.59 1013.61 1013.69 1013.82 1014.00 1014.22 1014.46 1014.69 1014.88 1015.03 1015.11 1015.11 1015.03 1014.89 1014.70 1014.46 1014.20 1013.93 1013.66
1016.75 1016.87 1016.95 1016.95 1016.89 1016.75 1016.54 1016.26 1015.93 1015.58 1015.22 1014.89 1014.59 1014.33 1014.14 1013.99 1013.88 1013.80 1013.73 1013.66 1013.58 1013.50 1013.40 1013.32 1013.26 1013.24 1013.27 1013.36 1013.51 1013.71 1013.94 1014.18 1014.41 1014.60 1014.73 1014.79 1014.78 1014.70 1014.55 1014.36 1014.14 1013.89 1013.65 1013.40
1016.50 1016.55 1016.56 1016.52 1016.42 1016.25 1016.03 1015.75 1015.44 1015.12 1014.80 1014.51 1014.25 1014.04 1013.88 1013.76 1013.67 1013.59 1013.52 1013.44 1013.34 1013.24 1013.13 1013.03 1012.97 1012.94 1012.98 1013.07 1013.22 1013.42 1013.65 1013.89 1014.10 1014.28 1014.39 1014.44 1014.42 1014.32 1014.18 1013.99 1013.78 1013.56 1013.34 1013.13
1016.03 1016.04 1016.01 1015.95 1015.86 1015.73 1015.55 1015.34 1015.10 1014.85 1014.60 1014.37 1014.16 1013.99 1013.84 1013.73 1013.63 1013.54 1013.44 1013.33 1013.21 1013.08 1012.95 1012.84 1012.76 1012.73 1012.75 1012.84 1012.98 1013.16 1013.36 1013.57 1013.76 1013.91 1014.00 1014.03 1014.00 1013.90 1013.76 1013.59 1013.40 1013.21 1013.02 1012.85
1015.33 1015.31 1015.29 1015.26 1015.23 1015.18 1015.11 1015.01 1014.89 1014.75 1014.60 1014.44 1014.29 1014.15 1014.02 1013.90 1013.78 1013.66 1013.52 1013.38 1013.23 1013.08 1012.93 1012.80 1012.70 1012.65 1012.64 1012.69 1012.79 1012.93 1013.09 1013.25 1013.39 1013.49 1013.55 1013.56 1013.51 1013.42 1013.29 1013.14 1012.98 1012.83 1012.68 1012.55
1014.43 1014.41 1014.43 1014.48 1014.55 1014.63 1014.70 1014.76 1014.79 1014.79 1014.75 1014.69 1014.60 1014.49 1014.37 1014.24 1014.09 1013.94 1013.78 1013.61 1013.43 1013.25 1013.08 1012.93 1012.81 1012.72 1012.67 1012.67 1012.70 1012.76 1012.84 1012.92 1012.99 1013.03 1013.04 1013.01 1012.95 1012.85 1012.74 1012.61 1012.49 1012.38 1012.29 1012.21
1013.42 1013.44 1013.52 1013.67 1013.87 1014.11 1014.35 1014.58 1014.78 1014.92 1015.01 1015.04 1015.01 1014.94 1014.83 1014.69 1014.54 1014.36 1014.18 1013.99 1013.80 1013.61 1013.43 1013.26 1013.10 1012.97 1012.86 1012.78 1012.72 1012.67 1012.64 1012.62 1012.58 1012.54 1012.48 1012.40 1012.30 1012.20 1012.09 1011.98 1011.89 1011.83 1011.78 1011.75
1012.43 1012.50 1012.66 1012.93 1013.27 1013.66 1014.07 1014.47 1014.82 1015.10 1015.30 1015.42 1015.46 1015.43 1015.34 1015.20 1015.05 1014.87 1014.69 1014.50 1014.32 1014.13 1013.94 1013.75 1013.57 1013.39 1013.20 1013.03 1012.85 1012.69 1012.53 1012.37 1012.21 1012.06 1011.90 1011.75 1011.60 1011.47 1011.34 1011.24 1011.17 1011.13 1011.11 1011.13
Thickness
5775 5769 5760 5762 5763 5759 5754 5746 5739 5733 5730 5724 5721 5717 5713 5710 5704 5700 5698 5696 5692 5688 5687 5684 5680 5677 5675 5673 5671 5670 5668 5669 5669 5670 5671 5673 5676 5680 5683 5686 5688 5690 5694 5698
5762 5756 5760 5762 5759 5753 5747 5739 5733 5725 5723 5721 5717 5715 5715 5709 5704 5701 5698 5695 5691 5687 5685 5682 5678 5675 5672 5669 5667 5666 5665 5665 5665 5664 5666 5667 5669 5672 5676 5678 5681 5684 5687 5690
5758 5754 5757 5755 5748 5744 5739 5734 5729 5722 5717 5717 5712 5713 5711 5710 5705 5700 5696 5694 5691 5685 5682 5679 5675 5673 5670 5667 5664 5663 5662 5662 5662 5662 5663 5664 5666 5668 5670 5672 5674 5677 5680 5683
5749 5751 5750 5747 5741 5741 5730 5731 5726 5719 5715 5715 5708 5705 5714 5710 5703 5700 5697 5694 5690 5685 5682 5678 5674 5671 5669 5666 5664 5662 5661 5660 5659 5659 5659 5659 5659 5660 5662 5665 5668 5672 5675 5677
5740 5744 5744 5739 5736 5737 5729 5728 5724 5719 5715 5711 5709 5704 5715 5707 5703 5702 5700 5695 5691 5687 5682 5678 5675 5671 5669 5666 5663 5661 5659 5658 5656 5656 5655 5656 5657 5657 5659 5661 5663 5666 5669 5671
5739 5743 5744 5739 5733 5733 5729 5724 5719 5718 5716 5705 5707 5701 5706 5711 5706 5703 5700 5697 5692 5688 5684 5680 5677 5673 5670 5666 5663 5661 5659 5657 5655 5654 5654 5653 5653 5653 5654 5655 5658 5661 5664 5666
5729 5734 5737 5738 5730 5727 5728 5721 5712 5709 5707 5707 5705 5699 5708 5714 5710 5705 5701 5698 5694 5690 5686 5682 5678 5674 5670 5667 5664 5662 5659 5657 5655 5654 5653 5652 5651 5651 5651 5651 5653 5655 5658 5659
5727 5721 5729 5733 5732 5727 5724 5723 5709 5702 5704 5709 5703 5703 5716 5715 5712 5708 5703 5699 5695 5692 5688 5683 5679 5675 5671 5668 5665 5663 5660 5657 5655 5654 5653 5651 5650 5649 5649 5648 5649 5650 5652 5654
5735 5721 5725 5727 5730 5730 5722 5720 5720 5714 5708 5704 5712 5713 5719 5715 5711 5708 5704 5700 5697 5694 5690 5686 5682 5679 5675 5671 5668 5665 5662 5660 5656 5654 5652 5651 5649 5647 5646 5646 5646 5646 5647 5649
5746 5723 5721 5723 5727 5721 5726 5721 5715 5711 5701 5704 5708 5709 5713 5715 5713 5711 5707 5703 5700 5697 5693 5689 5685 5682 5679 5675 5671 5669 5665 5662 5658 5655 5653 5649 5647 5646 5644 5643 5642 5642 5643 5644
5746 5731 5717 5720 5720 5721 5716 5714 5713 5711 5707 5703 5703 5712 5724 5719 5717 5713 5712 5708 5704 5700 5696 5693 5689 5686 5682 5679 5675 5672 5668 5664 5660 5657 5654 5651 5648 5646 5644 5642 5640 5640 5640 5641
5738 5738 5724 5721 5722 5723 5722 5720 5716 5709 5708 5703 5703 5713 5729 5724 5721 5717 5715 5712 5709 5704 5700 5696 5693 5689 5686 5682 5679 5675 5672 5667 5662 5659 5656 5652 5649 5647 5644 5642 5639 5639 5638 5637
5735 5732 5718 5712 5713 5716 5717 5715 5714 5713 5711 5707 5703 5716 5729 5728 5724 5722 5718 5716 5712 5708 5704 5700 5696 5693 5689 5685 5682 5678 5674 5670 5665 5661 5658 5655 5652 5648 5645 5642 5639 5638 5636 5635
5738 5735 5727 5720 5725 5726 5718 5712 5711 5713 5713 5712 5711 5719 5729 5730 5727 5726 5723 5720 5716 5712 5708 5704 5700 5697 5693 5689 5685 5681 5677 5673 5668 5664 5660 5656 5653 5649 5646 5643 5640 5638 5636 5634
5739 5734 5731 5728 5726 5726 5724 5720 5713 5715 5720 5717 5722 5721 5729 5733 5730 5729 5726 5723 5718 5714 5711 5708 5704 5701 5698 5694 5689 5685 5680 5676 5672 5667 5663 5659 5656 5652 5648 5645 5641 5639 5636 5634
5738 5733 5730 5724 5724 5724 5723 5725 5721 5717 5720 5720 5722 5724 5740 5739 5735 5732 5730 5726 5721 5718 5715 5712 5709 5705 5701 5698 5694 5689 5684 5679 5675 5670 5665 5660 5657 5653 5649 5646 5642 5639 5636 5634
5736 5734 5727 5727 5725 5723 5724 5736 5729 5728 5730 5728 5726 5736 5741 5737 5735 5734 5733 5729 5726 5723 5720 5716 5713 5709 5706 5703 5698 5692 5687 5682 5677 5672 5668 5663 5659 5655 5651 5648 5644 5640 5638 5634
5737 5734 5731 5728 5723 5714 5740 5747 5743 5736 5737 5739 5738 5741 5741 5739 5739 5739 5738 5734 5731 5728 5723 5720 5717 5713 5710 5706 5700 5695 5689 5684 5680 5675 5670 5665 5661 5657 5653 5649 5645 5643 5640 5636
5739 5733 5729 5727 5724 5730 5739 5743 5741 5736 5738 5746 5742 5743 5743 5742 5740 5743 5743 5739 5736 5733 5728 5724 5721 5717 5713 5708 5703 5697 5693 5687 5682 5677 5673 5669 5664 5660 5656 5652 5648 5645 5642 5639
5729 5734 5731 5723 5721 5723 5740 5748 5749 5742 5735 5749 5746 5744 5742 5739 5738 5740 5743 5739 5736 5733 5729 5725 5721 5717 5713 5709 5704 5698 5694 5690 5685 5680 5676 5672 5667 5662 5659 5656 5652 5648 5644 5641
5724 5725 5724 5723 5724 5737 5747 5745 5742 5729 5738 5748 5748 5746 5743 5741 5743 5743 5741 5739 5736 5732 5728 5724 5721 5716 5713 5709 5704 5699 5696 5693 5688 5683 5678 5673 5670 5665 5662 5658 5655 5652 5649 5645
5733 5728 5726 5726 5722 5732 5743 5742 5741 5746 5750 5748 5747 5746 5743 5743 5742 5740 5738 5736 5733 5731 5727 5723 5719 5716 5713 5709 5704 5700 5696 5694 5690 5684 5679 5675 5672 5669 5665 5661 5658 5655 5652 5649
5737 5742 5741 5740 5740 5741 5741 5744 5742 5741 5743 5745 5743 5742 5740 5738 5738 5736 5735 5734 5731 5729 5726 5722 5719 5715 5713 5709 5704 5700 5699 5695 5690 5685 5681 5678 5675 5671 5668 5664 5662 5659 5656 5654
5739 5734 5736 5737 5740 5738 5735 5736 5734 5735 5736 5737 5738 5737 5736 5735 5735 5733 5731 5730 5728 5726 5724 5720 5716 5713 5711 5710 5705 5701 5700 5695 5691 5687 5684 5682 5679 5676 5673 5668 5665 5662 5660 5658
5740 5731 5733 5736 5738 5731 5729 5729 5728 5728 5731 5731 5731 5731 5729 5729 5728 5727 5726 5724 5723 5721 5720 5717 5713 5711 5709 5708 5705 5701 5699 5695 5692 5690 5687 5684 5681 5678 5674 5672 5668 5666 5663 5660
5739 5736 5735 5740 5745 5740 5735 5727 5723 5723 5723 5724 5724 5722 5720 5720 5719 5719 5718 5716 5715 5714 5714 5711 5709 5706 5705 5705 5703 5700 5697 5694 5691 5690 5689 5686 5682 5679 5676 5673 5672 5667 5662 5659